Location: Asheville, NC
(35.6000°N, 82.5500°W)
Time: 15:55:20
(UTC-04:00)

Vanguard 2 Rocket - Pass Details

Date: 11 December 2017
Orbit: 553 x 3328 km, 32.9° (Epoch: 22 June)

Event Time Altitude Azimuth Distance (km) Brightness Sun altitude
Rises 21:41:41 0° 258° (WSW) 5,668 11.5 -52.8°
Reaches altitude 10° 21:44:51 10° 258° (WSW) 4,963 11.0 -53.5°
Enters shadow 21:55:52 59° 247° (WSW) 3,256 9.5 -55.7°
